Powrót do katalogu

STARLINK-30198

AktywnyŁącznośćVLEO
NORAD 57290·PAYLOAD·🇺🇸 United States

Wystrzelony Jul 10, 2023 z Cape Canaveral Space Force Station

Loading…

Następne Przeloty (najbliższe 24 godziny)

TLE

ŚwieżeSource: CelesTrak SupGP

Epoka: Sep 14, 2026, 21:56 UTC

1 57290C 23096A   26257.91437500  .00057511  00000+0  18178-2 0  2576
2 57290  42.9821 237.7562 0012603 114.1360 356.4495 15.31872974    15

Śledź STARLINK-30198 w czasie rzeczywistym z AllMySat

Download on the App Store